Location: PSU-Greenbush Astrophysical Observatory
(37.5140°N, 94.9880°W)
Time: 10:47:22
(UTC-06:00)

deb Explorer IX - Pass Details

Date: 01 February 2020
Orbit: 549 x 1099 km, 38.8° (Epoch: 21 February)

Event Time Altitude Azimuth Distance (km) Brightness Sun altitude
Rises 01:00:21 0° 284° (WNW) 3,842 - -68.9°
Reaches altitude 10° 01:03:15 10° 277° (W) 2,921 - -68.7°
Maximum altitude 01:09:47 37° 213° (SSW) 1,629 - -68.2°
Drops below altitude 10° 01:16:15 10° 148° (SSE) 2,890 - -67.6°
Sets 01:19:07 0° 141° (SE) 3,796 - -67.4°
